| time (UTC) | temp C | wind direction | speed KPH | gust KPH | rain 1hr cm | rain 24hr cm | rain mn cm | humidity % | barometer mb |
| 20260502151603 | 25 | 0 | 0.0 | 0.0 | 0.00 | 0.00 | 0.00 | 11 | 1012.5 |
| 20260502123056 | 17 | 0 | 0.0 | 0.0 | 0.00 | 0.00 | 0.00 | 23 | 1011.4 |
| 20260502121552 | 18 | 0 | 0.0 | 0.0 | 0.00 | 0.00 | 0.00 | 18 | 1011.1 |
| 20260502114558 | 21 | 0 | 0.0 | 0.0 | 0.00 | 0.00 | 0.00 | 18 | 1010.8 |
| 20260502113054 | 22 | 0 | 0.0 | 0.0 | 0.00 | 0.00 | 0.00 | 12 | 1010.7 |
| 20260502111550 | 22 | 0 | 0.0 | 0.0 | 0.00 | 0.00 | 0.00 | 12 | 1010.7 |
| 20260502110057 | 22 | 0 | 0.0 | 0.0 | 0.00 | 0.00 | 0.00 | 13 | 1010.6 |
| 20260502104551 | 22 | 0 | 0.0 | 0.0 | 0.00 | 0.00 | 0.00 | 12 | 1010.7 |
| 20260502103058 | 22 | 0 | 0.0 | 0.0 | 0.00 | 0.00 | 0.00 | 12 | 1010.7 |
| 20260502101553 | 22 | 0 | 0.0 | 0.0 | 0.00 | 0.00 | 0.00 | 13 | 1010.7 |
| 20260502080105 | 22 | 0 | 0.0 | 0.0 | 0.00 | 0.00 | 0.00 | 22 | 1010.9 |
| 20260502070055 | 24 | 0 | 0.0 | 0.0 | 0.00 | 0.00 | 0.00 | 12 | 1010.7 |
| 20260502064601 | 25 | 0 | 0.0 | 0.0 | 0.00 | 0.00 | 0.00 | 12 | 1010.4 |
| 20260502063053 | 25 | 0 | 0.0 | 0.0 | 0.00 | 0.00 | 0.00 | 11 | 1010.3 |
| 20260502061555 | 26 | 0 | 0.0 | 0.0 | 0.00 | 0.00 | 0.00 | 11 | 1010.2 |
| 20260502060056 | 26 | 0 | 0.0 | 0.0 | 0.00 | 0.00 | 0.00 | 12 | 1010.0 |
| 20260502054557 | 26 | 0 | 0.0 | 0.0 | 0.00 | 0.00 | 0.00 | 13 | 1010.1 |
| 20260502053055 | 27 | 0 | 0.0 | 0.0 | 0.00 | 0.00 | 0.00 | 11 | 1010.1 |
| 20260502051553 | 28 | 0 | 0.0 | 0.0 | 0.00 | 0.00 | 0.00 | 10 | 1009.9 |
| 20260502050050 | 27 | 0 | 0.0 | 0.0 | 0.00 | 0.00 | 0.00 | 10 | 1009.9 |
| 20260502044550 | 27 | 0 | 0.0 | 0.0 | 0.00 | 0.00 | 0.00 | 10 | 1009.7 |
| 20260502043052 | 27 | 0 | 0.0 | 0.0 | 0.00 | 0.00 | 0.00 | 11 | 1009.4 |
| 20260502041553 | 27 | 0 | 0.0 | 0.0 | 0.00 | 0.00 | 0.00 | 11 | 1009.3 |
| 20260502040106 | 27 | 0 | 0.0 | 0.0 | 0.00 | 0.00 | 0.00 | 11 | 1009.0 |
| 20260502034557 | 27 | 0 | 0.0 | 0.0 | 0.00 | 0.00 | 0.00 | 13 | 1008.9 |
| 20260502033050 | 27 | 0 | 0.0 | 0.0 | 0.00 | 0.00 | 0.00 | 13 | 1008.5 |
| 20260502031557 | 27 | 0 | 0.0 | 0.0 | 0.00 | 0.00 | 0.00 | 13 | 1008.2 |
| 20260502030053 | 28 | 0 | 0.0 | 0.0 | 0.00 | 0.00 | 0.00 | 14 | 1008.0 |
| 20260502024547 | 28 | 0 | 0.0 | 0.0 | 0.00 | 0.00 | 0.00 | 13 | 1007.9 |
| 20260502023055 | 28 | 0 | 0.0 | 0.0 | 0.00 | 0.00 | 0.00 | 13 | 1007.7 |
| 20260502021553 | 29 | 0 | 0.0 | 0.0 | 0.00 | 0.00 | 0.00 | 14 | 1007.5 |
| 20260502020107 | 30 | 0 | 0.0 | 0.0 | 0.00 | 0.00 | 0.00 | 13 | 1007.4 |
| 20260502014554 | 30 | 0 | 0.0 | 0.0 | 0.00 | 0.00 | 0.00 | 13 | 1007.2 |
| 20260502013058 | 31 | 0 | 0.0 | 0.0 | 0.00 | 0.00 | 0.00 | 12 | 1007.1 |
| 20260502011553 | 32 | 0 | 0.0 | 0.0 | 0.00 | 0.00 | 0.00 | 12 | 1007.1 |
| 20260502010052 | 32 | 0 | 0.0 | 0.0 | 0.00 | 0.00 | 0.00 | 10 | 1007.0 |
| 20260502004558 | 32 | 0 | 0.0 | 0.0 | 0.00 | 0.00 | 0.00 | 10 | 1007.0 |
| 20260502003107 | 32 | 0 | 0.0 | 0.0 | 0.00 | 0.00 | 0.00 | 8 | 1007.0 |
| 20260502001631 | 33 | 0 | 0.0 | 0.0 | 0.00 | 0.00 | 0.00 | 9 | 1007.1 |
| 20260502000051 | 32 | 0 | 0.0 | 0.0 | 0.00 | 0.00 | 0.00 | 8 | 1007.3 |
| 20260501234550 | 32 | 0 | 0.0 | 0.0 | 0.00 | 0.00 | 0.00 | 9 | 1007.2 |
| 20260501233050 | 33 | 0 | 0.0 | 0.0 | 0.00 | 0.00 | 0.00 | 8 | 1007.3 |
| 20260501231550 | 33 | 0 | 0.0 | 0.0 | 0.00 | 0.00 | 0.00 | 8 | 1007.3 |
| 20260501230049 | 33 | 0 | 0.0 | 0.0 | 0.00 | 0.00 | 0.00 | 9 | 1007.3 |
| 20260501224559 | 33 | 0 | 0.0 | 0.0 | 0.00 | 0.00 | 0.00 | 9 | 1007.5 |
| 20260501223050 | 32 | 0 | 0.0 | 1.6 | 0.00 | 0.00 | 0.00 | 9 | 1007.6 |
| 20260501221550 | 32 | 0 | 0.0 | 0.0 | 0.00 | 0.00 | 0.00 | 9 | 1007.8 |
| 20260501220051 | 32 | 0 | 0.0 | 0.0 | 0.00 | 0.00 | 0.00 | 9 | 1007.8 |
| 20260501214553 | 33 | 0 | 0.0 | 0.0 | 0.00 | 0.00 | 0.00 | 9 | 1008.1 |
| 20260501213056 | 33 | 0 | 0.0 | 0.0 | 0.00 | 0.00 | 0.00 | 8 | 1008.3 |
| 20260501211553 | 32 | 0 | 0.0 | 0.0 | 0.00 | 0.00 | 0.00 | 9 | 1008.5 |
| 20260501210057 | 33 | 0 | 0.0 | 0.0 | 0.00 | 0.00 | 0.00 | 9 | 1008.7 |
| 20260501204550 | 32 | 0 | 0.0 | 0.0 | 0.00 | 0.00 | 0.00 | 9 | 1008.9 |
| 20260501201549 | 31 | 0 | 0.0 | 0.0 | 0.00 | 0.00 | 0.00 | 9 | 1009.3 |
| 20260501200049 | 31 | 0 | 0.0 | 0.0 | 0.00 | 0.00 | 0.00 | 9 | 1009.4 |
| 20260501194548 | 31 | 0 | 0.0 | 0.0 | 0.00 | 0.00 | 0.00 | 9 | 1009.7 |
| 20260501193048 | 31 | 0 | 0.0 | 0.0 | 0.00 | 0.00 | 0.00 | 9 | 1009.9 |
| 20260501191546 | 31 | 0 | 0.0 | 0.0 | 0.00 | 0.00 | 0.00 | 10 | 1010.0 |
| 20260501190057 | 31 | 0 | 0.0 | 0.0 | 0.00 | 0.00 | 0.00 | 10 | 1010.1 |
| 20260501184550 | 30 | 0 | 0.0 | 0.0 | 0.00 | 0.00 | 0.00 | 10 | 1010.1 |
| 20260501183050 | 30 | 0 | 0.0 | 0.0 | 0.00 | 0.00 | 0.00 | 10 | 1010.3 |
| 20260501181553 | 30 | 0 | 0.0 | 0.0 | 0.00 | 0.00 | 0.00 | 11 | 1010.4 |
| 20260501180053 | 29 | 0 | 0.0 | 0.0 | 0.00 | 0.00 | 0.00 | 10 | 1010.6 |
| 20260501174552 | 29 | 0 | 0.0 | 1.6 | 0.00 | 0.00 | 0.00 | 11 | 1010.6 |
| 20260501173102 | 29 | 0 | 0.0 | 0.0 | 0.00 | 0.00 | 0.00 | 11 | 1010.7 |
| 20260501171552 | 29 | 0 | 0.0 | 0.0 | 0.00 | 0.00 | 0.00 | 11 | 1010.8 |
| 20260501170051 | 28 | 0 | 0.0 | 0.0 | 0.00 | 0.00 | 0.00 | 12 | 1010.6 |
| 20260501164557 | 28 | 0 | 0.0 | 0.0 | 0.00 | 0.00 | 0.00 | 12 | 1010.6 |
| 20260501163046 | 28 | 0 | 0.0 | 0.0 | 0.00 | 0.00 | 0.00 | 12 | 1010.7 |
| 20260501161600 | 27 | 0 | 0.0 | 1.6 | 0.00 | 0.00 | 0.00 | 13 | 1010.5 |
| 20260501160051 | 27 | 0 | 0.0 | 0.0 | 0.00 | 0.00 | 0.00 | 14 | 1010.7 |
| 20260501154601 | 26 | 0 | 0.0 | 0.0 | 0.00 | 0.00 | 0.00 | 16 | 1010.6 |